Погода в Дубе

Чехия     50°32′26″N   14°32′31″E
темп.,
°C
ветер,
м/с
пор.,
м/с
влажн.,
%
обл.,
%
осадки,
мм/ч
давл.,
гПа
погр.,
м
7 марта, вс
вс701:00−1зюз11680 0.0 103021
04:00−1зюз12700 0.0 102721
07:00−1юз11710 0.0 102621
10:00+3зюз34540 0.0 1024557
13:00+6з45492 0.0 10221219
16:00+6сз465378 0.0 10201132
19:00+1с337740 0.0 102072
22:00−1с278840 0.0 1020200
8 марта, пн
пн801:00−1з239022 0.0 102065
04:00−1зсз128866 0.0 102074
07:00−1з238482 0.0 1021202
10:00+2ссз346994 0.0 1022826
13:00+4ссз235188 0.0 10221242
16:00+4ссв335095 0.0 10211263
19:000ссв347080 0.0 1022106
22:00−1ссв237260 0.0 102381
9 марта, вт
вт901:00−2в117377 0.0 102250
04:00−2в117080 0.0 102128
07:00−1вюв116890 0.0 102180
10:00+1ю1158100 0.0 1021464
13:00+3зюз2256100 0.0 1020969
16:00+2ю2275100 0.0 1019536
19:000юв1298100 0.1 102081
22:00+1вюв119898 0.3 102036
10 марта, ср
ср1001:00−1юв116419 0.0 102321
04:00−1юв227293 0.0 102330
07:00−1вюв118087 0.0 102337
10:00+3ю347299 0.0 1023482
13:00+6ю4661100 0.0 10211022
16:00+7ююз4761100 0.0 10181205
19:00+4ю487397 0.0 1016154
22:00+4ю4871100 0.0 1016194
11 марта, чт
чт1101:00+5ююз61371100 0.2 1013929
04:00+5юз71587100 0.5 1010726
07:00+6юз71682100 1.4 1008863
10:00+9зюз101865100 0.0 10071263
13:00+11зюз91861100 0.0 10051632
16:00+11юз61768100 0.0 10031518
19:00+9зюз8187594 0.0 10021350
22:00+7зюз6166967 0.1 10041139